Location: Lima
(44.6384°N, 112.5920°W)
Time: 13:29:47
(UTC+00:00)

ISS - Pass Details

Date: 08 December 2023
Orbit: 414 x 422 km, 51.6° (Epoch: 26 February)

Event Time Altitude Azimuth Distance (km) Brightness Sun altitude
Rises 00:58:41 0° 287° (WNW) 2,412 1.0 -11.8°
Reaches altitude 10° 01:01:32 10° 261° (W) 1,546 0.5 -12.3°
Maximum altitude 01:03:27 14° 228° (SW) 1,317 -0.2 -12.6°
Drops below altitude 10° 01:05:21 10° 194° (SSW) 1,548 -0.4 -12.9°
Sets 01:08:14 0° 169° (SSE) 2,417 0.2 -13.4°
